Regional Weather Roundup
Issued by NWS Upton, NY

Current Version | Previous Version | Graphics & Text | Print | Product List | Glossary Off
Versions: 1 2 3 4 5 6 7 8 9 10 11 12 13 14 15 16 17 18 19 20 21 22 23 24 25 26 27 28 29 30 31 32 33 34 35 36 37 38 39 40 41 42 43 44 45 46 47 48 49

000
ASUS41 KOKX 061105
RWROKX

REGIONAL WEATHER ROUNDUP
NATIONAL WEATHER SERVICE NEW YORK NY
600 AM EST FRI MAR 06 2015

NOTE: "FAIR" INDICATES FEW OR NO CLOUDS BELOW 12,000 FEET WITH NO
SIGNIFICANT WEATHER AND/OR OBSTRUCTIONS TO VISIBILITY.

NYZ071-072-176-178-NJZ106-104-061200-
NEW YORK CITY METRO AREA


CITY           SKY/WX    TMP DP  RH WIND       PRES   REMARKS
CENTRAL PARK   CLEAR     13   0  56 VRB5      30.52R WCI   5
LAGUARDIA APRT CLEAR     15   2  56 N8        30.50R WCI   4
KENNEDY INTL   CLEAR     13   0  56 N6        30.51R WCI   4
NEWARK/LIBERTY CLEAR     13   2  61 NW9       30.51R WCI   1
BRNX BOT. GARD   N/A    N/A N/A N/A NW7       30.51S
TETERBORO      CLEAR     11   0  61 NW5       30.51R WCI   3
$$

NYZ177-179-078>081-061200-
LONG ISLAND NEW YORK

CITY           SKY/WX    TMP DP  RH WIND       PRES   REMARKS
FARMINGDALE    CLEAR     12   2  64 N9        30.49R WCI   0
ISLIP          CLEAR     12  -1  56 N12       30.47R WCI  -2
SHIRLEY        CLEAR     13   0  56 N10       30.49R WCI   0
WESTHAMPTON    CLEAR     13  -1  54 N12       30.49R WCI  -1
MONTAUK POINT    N/A     16  -2  45 N15G23    30.47R WCI   1
$$

NYZ052-065-067-061200-
HUDSON VALLEY

CITY           SKY/WX    TMP DP  RH WIND       PRES   REMARKS
WHITE PLAINS   CLEAR      4  -3  73 W5        30.46R WCI  -5
NEWBURGH       CLEAR      1  -4  78 CALM      30.47R
MONTGOMERY     PTCLDY    -1  -7  75 E3        30.47R
POUGHKEEPSIE   CLEAR      1  -5  75 CALM      30.50R
ALBANY         PTCLDY     3  -6  66 W3        30.49R
$$

NJZ001-105-106-008-010-013-015-019>022-104-061200-
NEW JERSEY

CITY           SKY/WX    TMP DP  RH WIND       PRES   REMARKS
NEWARK/LIBERTY CLEAR     13   2  61 NW9       30.51R WCI   1
TETERBORO      CLEAR     11   0  61 NW5       30.51R WCI   3
CALDWELL       CLEAR      4  -1  80 S5        30.51R WCI  -5
MORRISTOWN     CLEAR     10   1  67 NW3       30.50R
SOMERVILLE     PTCLDY     5  -2  72 CALM      30.50R
SUSSEX         PTCLDY     8  -1  66 VRB3      30.47R
ANDOVER          N/A      5  -2  72 N3        30.48R
TRENTON        PTCLDY     8  -1  66 NW5       30.50R WCI   0
MILLVILLE      PTCLDY    11  32 100 NW6       30.52R WCI   1
ATLANTIC CITY  PTCLDY     9   3  77 N8        30.50  WCI  -3
WRIGHTSTOWN    NOT AVBL
TOMS RIVER     PTCLDY     9   3  78 NW6       30.50R WCI  -1
BELMAR         PTCLDY     7  -2  66 NW7       30.49R WCI  -5
$$

PAZ047>061-062-071-061200-
EASTERN PENNSYLVANIA

CITY           SKY/WX    TMP DP  RH WIND       PRES   REMARKS
PHILADELPHIA   PTCLDY    12   2  64 N8        30.54R WCI   0
ALLENTOWN      CLEAR      3  -6  66 CALM      30.51R
SCRANTON       PTCLDY     5  -5  63 N5        30.46R WCI  -4
$$

CTZ002-004>006-009-010-012-RIZ004-006-007-MAZ004-011-015-061200-
SOUTHERN NEW ENGLAND
 IN CT

CITY           SKY/WX    TMP DP  RH WIND       PRES   REMARKS
BRADLEY INTL   PTCLDY     8  -6  52 W6        30.46R WCI  -2
HARTFORD       CLEAR     11  -5  48 VRB5      30.49R WCI   3
DANBURY        CLEAR      9  -2  61 NE5       30.47R WCI   1
WTRBRY/OXFORD  CLEAR      5  -9  51 N7        30.43R WCI  -7
BRIDGEPORT     FAIR      10  -1  61 N5        30.50R WCI   2
MERIDEN        CLEAR     11  -5  48 NW6       30.49R WCI   1
NEW HAVEN      CLEAR     10  -4  53 N7        30.48R WCI  -1
CHESTER        FAIR      12   0  57 N7        30.44R WCI   2
GROTON         CLEAR      7  -3  64 N6        30.47R WCI  -3
WILLIMANTIC    CLEAR      4  -4  69 CALM      30.46R

 IN RI

CITY           SKY/WX    TMP DP  RH WIND       PRES   REMARKS
PROVIDENCE     FAIR      10  -7  46 N8        30.46R WCI  -2
BLOCK ISLAND   CLEAR     12  -4  48 N10G22    30.43R WCI  -1
WESTERLY       CLEAR      9  -3  58 N8        30.46R WCI  -3

 IN MA

CITY           SKY/WX    TMP DP  RH WIND       PRES   REMARKS
BOSTON         PTCLDY     9  -8  46 NW8       30.47R WCI  -3
WORCESTER      FAIR       5 -10  50 N12       30.36R WCI -11
WESTFIELD      CLEAR      1  -9  62 CALM      30.46R
PROVINCETOWN   PTCLDY    19   3  49 N17G25    30.41R WCI   4
NANTUCKET      CLEAR     19  10  68 N20       30.39R WCI   3
$$

ANZ330-335-338-340-345-350-353-355-061200-
COASTAL MARINE OBSERVATIONS


STATION/POSITION TIME  SKY/WX   TEMP    WIND        PRES    VSBY  WAVE
                                AIR SEA DIR/SP/G                  HT/PER
                 (UTC)          (F)     (DEG/KT/KT) (MB)    (MI)  (FT/S)
NY HARB ENTRANCE 1100            19 38   10/ 19/ 25 1031.9          3/ 4
4S FIRE IS       NOT AVBL
20S FIRE ISLAND  1000               36              1031.3          5/ 5
23SW MTP         1100                                 N/A           4/ 5
HUDSON CANYON    NOT AVBL
EXECUTION ROCKS  NOT AVBL
WESTERN LI SOUND NOT AVBL
CENTRAL LI SOUND NOT AVBL
EASTERN LI SOUND NOT AVBL
ROBBINS REEF     1100            14     340/  9/ 11 1031.8
$$


>>>>>>>>>>>>>>>>>>>>>>>>>>>> KEY <<<<<<<<<<<<<<<<<<<<<<<<<<<
>                                                          <
>     SKY/WX - SKY CONDITION/PRESENT WEATHER               <
>     TMP    - TEMPERATURE IN FAHRENHEIT                   <
>     DP     - DEWPOINT IN FAHRENHEIT                      <
>     RH     - RELATIVE HUMIDITY IN PERCENT                <
>     WIND   - DIRECTION AND SPEED IN MPH                  <
>     PRES   - MEAN SEA LEVEL PRESSURE IN INCHES OF HG     <
>     WCI    - WIND CHILL INDEX                            <
>     VSB    - VISIBILITY IN MILES                         <
>     HX     - HEAT INDEX                                  <
>     TC     - TEMPERATURE IN CELSIUS                      <
>     VRB    - VARIABLE WIND DIRECTION                     <
>                                                          <
>>>>>>>>>>>>>>>>>>>>>>>>>>>> KEY <<<<<<<<<<<<<<<<<<<<<<<<<<<





USA.gov is the U.S. government's official web portal to all federal, state and local government web resources and services.